Location: Seattle
(47.6064°N, 122.3308°W)
Time: 01:14:48
(UTC-08:00)

A-11 Canister half - Pass Details

Date: 26 November 2020
Orbit: 1524 x 1684 km, 47.3° (Epoch: 21 January)

Event Time Altitude Azimuth Distance (km) Brightness Sun altitude
Rises 14:01:38 0° 290° (WNW) 4,843 11.7 15.7°
Reaches altitude 10° 14:05:33 10° 278° (W) 3,826 11.5 15.4°
Maximum altitude 14:12:42 24° 230° (SW) 2,819 12.2 14.8°
Drops below altitude 10° 14:19:43 10° 181° (S) 3,724 12.2 14.1°
Sets 14:23:29 0° 168° (SSE) 4,685 12.2 13.8°
